{"data":{"norad_id":58045,"epoch":"2026-05-24T21:34:10.132896Z","epoch_age_seconds":83729,"freshness":"FRESH","line1":"1 58045U 23156T   26144.89872839  .00000743  00000+0  37204-4 0  9993","line2":"2 58045  53.1613   7.3662 0001195  77.8092 282.3042 15.30195389149049","mean_motion":15.30195389,"eccentricity":0.0001195,"inclination_deg":53.1613,"raan_deg":7.3662,"arg_perigee_deg":77.8092,"mean_anomaly_deg":282.3042,"bstar":3.7204e-5,"rev_number":14904,"period_min":94.105629277909,"perigee_km":474.40985985123,"apogee_km":476.04781428629,"semimajor_km":6853.3658370688,"source":"CELESTRAK","updated_at":"2026-05-25T13:38:18.497535Z"}}